OKPRC LZIB-LKPR

Flight info

Callsign OKPRC
Flight time 1h 2m
Altitude 22000
Route BERVA2G/13 BERVA M748 TUTPI A4 ODNEM/N0272F260 DCT TUMKA DCT VLM
Aircraft PC12/L-SDFGRWY/S

Departure

Time 2026-05-04 18:56
Airport M. R. Štefánik Airport (LZIB)

Arrival

Time 2026-05-04 19:58
Airport Václav Havel Airport Prague (LKPR)
Time Latitude Longitude Altitude Speed Heading
2026-05-04 18:44 48.17200 17.20282 426 ft 0 kts 133°
2026-05-04 18:52 48.17199 17.20284 426 ft 1 kts 132°
2026-05-04 18:52 48.17188 17.20317 426 ft 3 kts 73°
2026-05-04 18:52 48.17222 17.20366 422 ft 11 kts 45°
2026-05-04 18:53 48.17276 17.20438 425 ft 7 kts 25°
2026-05-04 18:53 48.17320 17.20414 420 ft 8 kts 316°
2026-05-04 18:53 48.17368 17.20341 425 ft 11 kts 314°
2026-05-04 18:53 48.17426 17.20298 425 ft 5 kts 354°
2026-05-04 18:54 48.17439 17.20297 425 ft 0 kts
2026-05-04 18:55 48.17475 17.20310 424 ft 11 kts 19°
2026-05-04 18:55 48.17544 17.20448 424 ft 0 kts 134°
2026-05-04 18:56 48.17427 17.20627 426 ft 55 kts 134°
2026-05-04 18:56 48.17034 17.21231 509 ft 98 kts 135°
2026-05-04 18:56 48.16560 17.22032 993 ft 101 kts 134°
2026-05-04 18:56 48.16132 17.22854 1452 ft 105 kts 136°
2026-05-04 18:57 48.15693 17.23845 1834 ft 119 kts 135°
2026-05-04 18:57 48.15111 17.24694 2257 ft 116 kts 149°
2026-05-04 18:57 48.14489 17.25539 2611 ft 122 kts 145°
2026-05-04 18:57 48.13875 17.26430 3041 ft 124 kts 145°
2026-05-04 18:58 48.13252 17.27343 3452 ft 126 kts 145°
2026-05-04 18:58 48.12614 17.28281 3862 ft 130 kts 144°
2026-05-04 18:58 48.11968 17.29236 4291 ft 133 kts 144°
2026-05-04 18:58 48.11300 17.30222 4716 ft 136 kts 144°
2026-05-04 18:59 48.10665 17.31331 5109 ft 148 kts 124°
2026-05-04 18:59 48.10519 17.32878 5568 ft 157 kts 85°
2026-05-04 18:59 48.11027 17.34344 6020 ft 163 kts 46°
2026-05-04 18:59 48.11857 17.35506 6479 ft 163 kts 44°
2026-05-04 19:00 48.12684 17.36675 6892 ft 165 kts 41°
2026-05-04 19:00 48.13744 17.37147 7318 ft 160 kts 349°
2026-05-04 19:00 48.14473 17.36893 7607 ft 159 kts 339°
2026-05-04 19:00 48.15551 17.36446 8023 ft 162 kts 343°
2026-05-04 19:01 48.16664 17.36096 8449 ft 164 kts 347°
2026-05-04 19:01 48.17790 17.35788 8877 ft 165 kts 347°
2026-05-04 19:01 48.19310 17.35368 9452 ft 167 kts 347°
2026-05-04 19:01 48.20084 17.35152 9747 ft 168 kts 347°
2026-05-04 19:02 48.21241 17.34830 10157 ft 169 kts 347°
2026-05-04 19:02 48.22407 17.34506 10550 ft 172 kts 347°
2026-05-04 19:02 48.23593 17.34177 10903 ft 176 kts 347°
2026-05-04 19:02 48.24798 17.33844 11303 ft 177 kts 347°
2026-05-04 19:03 48.26017 17.33504 11702 ft 178 kts 346°
2026-05-04 19:03 48.27241 17.33160 12103 ft 179 kts 346°
2026-05-04 19:03 48.28476 17.32815 12508 ft 180 kts 346°
2026-05-04 19:03 48.29715 17.32471 12907 ft 181 kts 346°
2026-05-04 19:04 48.30946 17.32128 13301 ft 182 kts 346°
2026-05-04 19:04 48.32196 17.31780 13696 ft 183 kts 346°
2026-05-04 19:04 48.33454 17.31429 14061 ft 184 kts 346°
2026-05-04 19:04 48.34718 17.31076 14424 ft 185 kts 346°
2026-05-04 19:05 48.35985 17.30719 14860 ft 185 kts 346°
2026-05-04 19:05 48.37272 17.30357 15312 ft 186 kts 346°
2026-05-04 19:05 48.38548 17.29999 15747 ft 187 kts 346°
2026-05-04 19:05 48.39838 17.29639 15993 ft 200 kts 347°
2026-05-04 19:06 48.41283 17.29235 15999 ft 220 kts 347°
2026-05-04 19:06 48.42839 17.28800 16008 ft 234 kts 347°
2026-05-04 19:06 48.44477 17.28340 16006 ft 244 kts 347°
2026-05-04 19:06 48.46171 17.27866 16009 ft 251 kts 347°
2026-05-04 19:07 48.47907 17.27380 16007 ft 255 kts 347°
2026-05-04 19:07 48.49664 17.26885 16007 ft 259 kts 346°
2026-05-04 19:07 48.51441 17.26381 16007 ft 261 kts 347°
2026-05-04 19:07 48.53216 17.25882 16030 ft 263 kts 347°
2026-05-04 19:08 48.54998 17.25380 16311 ft 256 kts 346°
2026-05-04 19:08 48.56724 17.24892 16641 ft 250 kts 346°
2026-05-04 19:08 48.58416 17.24414 16974 ft 245 kts 346°
2026-05-04 19:08 48.60081 17.23942 17320 ft 241 kts 346°
2026-05-04 19:09 48.61724 17.23478 17652 ft 238 kts 346°
2026-05-04 19:09 48.63353 17.23019 17997 ft 236 kts 346°
2026-05-04 19:09 48.64956 17.22566 18337 ft 235 kts 346°
2026-05-04 19:09 48.66565 17.22110 18636 ft 233 kts 346°
2026-05-04 19:10 48.68159 17.21660 18948 ft 232 kts 346°
2026-05-04 19:10 48.69745 17.21212 19261 ft 231 kts 346°
2026-05-04 19:10 48.71322 17.20765 19571 ft 230 kts 346°
2026-05-04 19:10 48.72895 17.20320 19886 ft 230 kts 347°
2026-05-04 19:11 48.74467 17.19874 20204 ft 229 kts 347°
2026-05-04 19:11 48.76037 17.19429 20526 ft 229 kts 347°
2026-05-04 19:11 48.77583 17.18989 20849 ft 228 kts 347°
2026-05-04 19:11 48.79147 17.18544 21185 ft 228 kts 347°
2026-05-04 19:12 48.80707 17.18100 21521 ft 227 kts 347°
2026-05-04 19:12 48.83834 17.17181 21959 ft 236 kts 343°
2026-05-04 19:12 48.85328 17.16079 21975 ft 243 kts 321°
2026-05-04 19:13 48.86519 17.14230 21979 ft 248 kts 303°
2026-05-04 19:13 48.87519 17.12045 21977 ft 254 kts 303°
2026-05-04 19:13 48.88546 17.09821 21976 ft 259 kts 303°
2026-05-04 19:13 48.89595 17.07582 21976 ft 262 kts 304°
2026-05-04 19:14 48.90636 17.05346 21974 ft 263 kts 303°
2026-05-04 19:14 48.91692 17.03058 21975 ft 265 kts 303°
2026-05-04 19:14 48.92749 17.00765 21972 ft 264 kts 303°
2026-05-04 19:14 48.93806 16.98478 21973 ft 263 kts 303°
2026-05-04 19:15 48.94861 16.96196 21974 ft 263 kts 303°
2026-05-04 19:15 48.95909 16.93911 21976 ft 263 kts 303°
2026-05-04 19:15 48.96963 16.91623 21973 ft 263 kts 303°
2026-05-04 19:15 48.98004 16.89369 21973 ft 263 kts 303°
2026-05-04 19:16 48.99052 16.87080 21976 ft 263 kts 303°
2026-05-04 19:16 49.00102 16.84797 21977 ft 263 kts 303°
2026-05-04 19:16 49.01153 16.82517 21976 ft 263 kts 303°
2026-05-04 19:16 49.02201 16.80234 21973 ft 263 kts 303°
2026-05-04 19:17 49.03247 16.77942 21975 ft 263 kts 303°
2026-05-04 19:17 49.04296 16.75651 21975 ft 262 kts 303°
2026-05-04 19:17 49.05331 16.73400 21977 ft 262 kts 303°
2026-05-04 19:17 49.06373 16.71114 21976 ft 262 kts 302°
2026-05-04 19:18 49.07412 16.68831 21976 ft 262 kts 303°
2026-05-04 19:18 49.08460 16.66548 21977 ft 262 kts 303°
2026-05-04 19:18 49.09503 16.64259 21978 ft 262 kts 302°
2026-05-04 19:18 49.10540 16.61975 21975 ft 262 kts 303°
2026-05-04 19:19 49.11586 16.59690 21974 ft 262 kts 302°
2026-05-04 19:19 49.12626 16.57400 21976 ft 262 kts 302°
2026-05-04 19:19 49.13664 16.55108 21976 ft 262 kts 303°
2026-05-04 19:19 49.14710 16.52815 21974 ft 262 kts 302°
2026-05-04 19:20 49.15743 16.50535 21974 ft 261 kts 302°
2026-05-04 19:20 49.16776 16.48252 21975 ft 261 kts 302°
2026-05-04 19:20 49.17812 16.45974 21975 ft 261 kts 302°
2026-05-04 19:20 49.18837 16.43713 21974 ft 261 kts 302°
2026-05-04 19:21 49.19879 16.41395 21969 ft 261 kts 302°
2026-05-04 19:21 49.20900 16.39135 21969 ft 261 kts 302°
2026-05-04 19:21 49.21939 16.36861 21972 ft 261 kts 303°
2026-05-04 19:21 49.23030 16.34628 21969 ft 261 kts 305°
2026-05-04 19:22 49.24138 16.32421 21972 ft 261 kts 304°
2026-05-04 19:22 49.25226 16.30193 21971 ft 260 kts 304°
2026-05-04 19:22 49.26290 16.27982 21973 ft 260 kts 304°
2026-05-04 19:22 49.27374 16.25752 21974 ft 260 kts 304°
2026-05-04 19:23 49.28460 16.23531 21972 ft 260 kts 304°
2026-05-04 19:23 49.29542 16.21306 21973 ft 260 kts 304°
2026-05-04 19:23 49.30616 16.19080 21972 ft 260 kts 304°
2026-05-04 19:23 49.31695 16.16857 21972 ft 259 kts 304°
2026-05-04 19:24 49.32779 16.14634 21974 ft 259 kts 304°
2026-05-04 19:24 49.33854 16.12417 21971 ft 258 kts 304°
2026-05-04 19:24 49.34921 16.10208 21972 ft 258 kts 304°
2026-05-04 19:24 49.35990 16.07993 21971 ft 257 kts 304°
2026-05-04 19:25 49.37042 16.05814 21969 ft 257 kts 304°
2026-05-04 19:25 49.38107 16.03608 21969 ft 257 kts 303°
2026-05-04 19:25 49.39175 16.01396 21968 ft 258 kts 304°
2026-05-04 19:25 49.40242 15.99181 21967 ft 257 kts 303°
2026-05-04 19:26 49.41307 15.96968 21966 ft 257 kts 303°
2026-05-04 19:26 49.42371 15.94756 21966 ft 257 kts 303°
2026-05-04 19:26 49.43435 15.92542 21963 ft 257 kts 303°
2026-05-04 19:26 49.44498 15.90326 21961 ft 257 kts 303°
2026-05-04 19:27 49.45556 15.88121 21961 ft 257 kts 303°
2026-05-04 19:27 49.46620 15.85903 21962 ft 257 kts 303°
2026-05-04 19:27 49.47678 15.83694 21959 ft 257 kts 303°
2026-05-04 19:27 49.48738 15.81479 21956 ft 257 kts 303°
2026-05-04 19:28 49.49799 15.79257 21958 ft 257 kts 303°
2026-05-04 19:28 49.50861 15.77034 21961 ft 257 kts 303°
2026-05-04 19:28 49.51910 15.74842 21956 ft 257 kts 303°
2026-05-04 19:28 49.52966 15.72615 21955 ft 257 kts 303°
2026-05-04 19:29 49.54041 15.70362 21955 ft 257 kts 303°
2026-05-04 19:29 49.55088 15.68169 21953 ft 257 kts 303°
2026-05-04 19:29 49.56157 15.65916 21954 ft 257 kts 302°
2026-05-04 19:29 49.57200 15.63715 21951 ft 257 kts 302°
2026-05-04 19:30 49.58259 15.61483 21952 ft 257 kts 303°
2026-05-04 19:30 49.59317 15.59269 21952 ft 257 kts 303°
2026-05-04 19:30 49.60374 15.57044 21951 ft 257 kts 303°
2026-05-04 19:30 49.61423 15.54826 21950 ft 257 kts 302°
2026-05-04 19:31 49.62477 15.52592 21949 ft 256 kts 302°
2026-05-04 19:31 49.63528 15.50364 21947 ft 257 kts 302°
2026-05-04 19:31 49.64578 15.48143 21948 ft 256 kts 302°
2026-05-04 19:31 49.65631 15.45915 21948 ft 256 kts 302°
2026-05-04 19:32 49.66681 15.43688 21948 ft 256 kts 302°
2026-05-04 19:32 49.67733 15.41459 21949 ft 256 kts 302°
2026-05-04 19:32 49.68782 15.39233 21948 ft 256 kts 302°
2026-05-04 19:32 49.69476 15.37757 21944 ft 256 kts 302°
2026-05-04 19:33 49.70522 15.35535 21946 ft 255 kts 302°
2026-05-04 19:33 49.71566 15.33312 21947 ft 255 kts 302°
2026-05-04 19:33 49.72612 15.31084 21946 ft 255 kts 302°
2026-05-04 19:33 49.73658 15.28856 21948 ft 255 kts 302°
2026-05-04 19:34 49.74703 15.26625 21944 ft 255 kts 302°
2026-05-04 19:34 49.75742 15.24406 21945 ft 255 kts 302°
2026-05-04 19:34 49.76793 15.22163 21945 ft 255 kts 302°
2026-05-04 19:34 49.77837 15.19931 21943 ft 255 kts 302°
2026-05-04 19:35 49.78877 15.17704 21946 ft 255 kts 302°
2026-05-04 19:35 49.79919 15.15482 21945 ft 255 kts 302°
2026-05-04 19:35 49.80944 15.13285 21944 ft 255 kts 302°
2026-05-04 19:35 49.81978 15.11057 21945 ft 255 kts 302°
2026-05-04 19:36 49.83013 15.08830 21946 ft 254 kts 302°
2026-05-04 19:36 49.84051 15.06611 21943 ft 255 kts 302°
2026-05-04 19:36 49.85090 15.04383 21944 ft 254 kts 302°
2026-05-04 19:36 49.86123 15.02144 21944 ft 254 kts 302°
2026-05-04 19:37 49.87149 14.99927 21945 ft 254 kts 302°
2026-05-04 19:37 49.88193 14.97689 21946 ft 254 kts 302°
2026-05-04 19:37 49.89216 14.95488 21945 ft 254 kts 302°
2026-05-04 19:37 49.90243 14.93255 21945 ft 254 kts 302°
2026-05-04 19:38 49.91273 14.91025 21947 ft 254 kts 302°
2026-05-04 19:38 49.92306 14.88800 21946 ft 254 kts 302°
2026-05-04 19:38 49.93340 14.86571 21946 ft 254 kts 302°
2026-05-04 19:38 49.94369 14.84337 21947 ft 254 kts 302°
2026-05-04 19:39 49.95397 14.82091 21947 ft 254 kts 302°
2026-05-04 19:39 49.96427 14.79859 21947 ft 254 kts 302°
2026-05-04 19:39 49.97462 14.77622 21949 ft 254 kts 302°
2026-05-04 19:39 49.98489 14.75386 21944 ft 253 kts 302°
2026-05-04 19:40 49.99511 14.73155 21749 ft 253 kts 302°
2026-05-04 19:40 50.00537 14.70926 21437 ft 253 kts 302°
2026-05-04 19:40 50.01555 14.68709 21131 ft 252 kts 302°
2026-05-04 19:40 50.02583 14.66451 20807 ft 252 kts 302°
2026-05-04 19:41 50.03601 14.64229 20487 ft 252 kts 302°
2026-05-04 19:41 50.04621 14.62008 20158 ft 252 kts 302°
2026-05-04 19:41 50.05650 14.59761 19839 ft 251 kts 302°
2026-05-04 19:41 50.06647 14.57565 19529 ft 251 kts 302°
2026-05-04 19:42 50.07703 14.55254 19206 ft 251 kts 302°
2026-05-04 19:42 50.08699 14.53073 18898 ft 250 kts 302°
2026-05-04 19:42 50.09706 14.50854 18592 ft 250 kts 302°
2026-05-04 19:42 50.10709 14.48654 18294 ft 249 kts 302°
2026-05-04 19:43 50.11710 14.46455 17950 ft 249 kts 302°
2026-05-04 19:43 50.12710 14.44256 17603 ft 248 kts 302°
2026-05-04 19:43 50.13710 14.42063 17263 ft 248 kts 302°
2026-05-04 19:43 50.14700 14.39878 16922 ft 247 kts 301°
2026-05-04 19:44 50.15690 14.37690 16615 ft 246 kts 301°
2026-05-04 19:44 50.16675 14.35516 16284 ft 245 kts 301°
2026-05-04 19:44 50.17656 14.33347 15959 ft 245 kts 301°
2026-05-04 19:44 50.18641 14.31174 15632 ft 244 kts 300°
2026-05-04 19:45 50.19615 14.29005 15310 ft 243 kts 300°
2026-05-04 19:45 50.20590 14.26845 14991 ft 243 kts 300°
2026-05-04 19:45 50.21563 14.24692 14664 ft 243 kts 300°
2026-05-04 19:45 50.22546 14.22515 14219 ft 246 kts 299°
2026-05-04 19:46 50.23534 14.20316 13770 ft 248 kts 300°
2026-05-04 19:46 50.24530 14.18119 13242 ft 248 kts 300°
2026-05-04 19:46 50.25520 14.15938 12715 ft 242 kts 300°
2026-05-04 19:46 50.26475 14.13821 12151 ft 234 kts 300°
2026-05-04 19:47 50.27395 14.11770 11594 ft 226 kts 300°
2026-05-04 19:47 50.28276 14.09787 11050 ft 219 kts 300°
2026-05-04 19:47 50.29125 14.07848 10510 ft 213 kts 300°
2026-05-04 19:47 50.29944 14.05949 9984 ft 208 kts 300°
2026-05-04 19:48 50.30735 14.04081 9426 ft 204 kts 300°
2026-05-04 19:48 50.31512 14.02225 8853 ft 202 kts 300°
2026-05-04 19:48 50.32271 14.00381 8295 ft 201 kts 300°
2026-05-04 19:48 50.33014 13.98544 7844 ft 199 kts 300°
2026-05-04 19:49 50.33762 13.96667 7465 ft 201 kts 300°
2026-05-04 19:49 50.34283 13.94634 7099 ft 202 kts 280°
2026-05-04 19:49 50.34292 13.92480 6873 ft 192 kts 258°
2026-05-04 19:49 50.33804 13.90551 6564 ft 194 kts 236°
2026-05-04 19:50 50.32826 13.89091 6249 ft 199 kts 205°
2026-05-04 19:50 50.31470 13.88809 5972 ft 200 kts 168°
2026-05-04 19:50 50.30218 13.89747 5712 ft 201 kts 146°
2026-05-04 19:50 50.29070 13.90989 5440 ft 200 kts 145°
2026-05-04 19:51 50.27931 13.92248 5167 ft 199 kts 144°
2026-05-04 19:51 50.26824 13.93467 4897 ft 197 kts 144°
2026-05-04 19:51 50.25691 13.94661 4627 ft 195 kts 147°
2026-05-04 19:51 50.24611 13.95985 4340 ft 194 kts 133°
2026-05-04 19:52 50.23767 13.97582 4081 ft 191 kts 127°
2026-05-04 19:52 50.22969 13.99217 4009 ft 186 kts 126°
2026-05-04 19:52 50.22213 14.00816 4000 ft 180 kts 127°
2026-05-04 19:52 50.21464 14.02354 4005 ft 175 kts 127°
2026-05-04 19:53 50.20741 14.03873 4009 ft 173 kts 126°
2026-05-04 19:53 50.20020 14.05372 4008 ft 173 kts 128°
2026-05-04 19:53 50.19291 14.06879 3927 ft 175 kts 127°
2026-05-04 19:53 50.18592 14.08348 3717 ft 163 kts 127°
2026-05-04 19:54 50.17935 14.09712 3521 ft 153 kts 127°
2026-05-04 19:54 50.17308 14.11006 3325 ft 147 kts 127°
2026-05-04 19:54 50.16705 14.12265 3136 ft 143 kts 126°
2026-05-04 19:54 50.16112 14.13503 2952 ft 142 kts 126°
2026-05-04 19:55 50.15524 14.14719 2766 ft 137 kts 126°
2026-05-04 19:55 50.14983 14.15842 2597 ft 122 kts 126°
2026-05-04 19:55 50.14506 14.16837 2453 ft 107 kts 125°
2026-05-04 19:55 50.14085 14.17713 2317 ft 95 kts 126°
2026-05-04 19:56 50.13707 14.18493 2193 ft 85 kts 126°
2026-05-04 19:56 50.13362 14.19204 2079 ft 81 kts 124°
2026-05-04 19:56 50.13025 14.19916 1978 ft 81 kts 121°
2026-05-04 19:56 50.12698 14.20609 1858 ft 79 kts 119°
2026-05-04 19:57 50.12366 14.21301 1732 ft 79 kts 120°
2026-05-04 19:57 50.12031 14.21993 1625 ft 81 kts 118°
2026-05-04 19:57 50.11688 14.22693 1533 ft 82 kts 121°
2026-05-04 19:57 50.11347 14.23397 1412 ft 80 kts 120°
2026-05-04 19:58 50.11123 14.23864 1317 ft 79 kts 120°
2026-05-04 19:58 50.10798 14.24541 1194 ft 76 kts 119°
2026-05-04 19:58 50.10509 14.25143 1165 ft 62 kts 123°
2026-05-04 19:58 50.10287 14.25631 1181 ft 49 kts 126°
2026-05-04 19:59 50.10093 14.26017 1187 ft 42 kts 128°
2026-05-04 19:59 50.09926 14.26353 1195 ft 36 kts 127°
2026-05-04 19:59 50.09782 14.26651 1203 ft 34 kts 128°
2026-05-04 19:59 50.09640 14.26944 1203 ft 36 kts 126°
2026-05-04 20:00 50.09488 14.27254 1202 ft 32 kts 127°
2026-05-04 20:00 50.09423 14.27416 1206 ft 8 kts 86°
2026-05-04 20:00 50.09456 14.27472 1207 ft 8 kts 37°
2026-05-04 20:00 50.09507 14.27531 1209 ft 11 kts 37°
2026-05-04 20:01 50.09589 14.27625 1208 ft 18 kts 34°
2026-05-04 20:01 50.09681 14.27750 1204 ft 15 kts 65°
2026-05-04 20:01 50.09707 14.27905 1207 ft 13 kts 78°
2026-05-04 20:01 50.09724 14.28034 1209 ft 13 kts 78°
2026-05-04 20:02 50.09742 14.28180 1209 ft 14 kts 81°
2026-05-04 20:02 50.09760 14.28328 1209 ft 14 kts 76°
2026-05-04 20:02 50.09784 14.28441 1209 ft 8 kts 43°
2026-05-04 20:02 50.09840 14.28447 1209 ft 9 kts 349°
2026-05-04 20:03 50.09904 14.28456 1209 ft 10 kts 30°
2026-05-04 20:03 50.09952 14.28516 1209 ft 6 kts 37°
2026-05-04 20:03 50.09960 14.28527 1209 ft 1 kts 51°
2026-05-04 20:03 50.09959 14.28550 1209 ft 2 kts 127°
2026-05-04 20:04 50.09940 14.28562 1209 ft 0 kts 170°